STARLINK-1414, 45690

Orbit data source: Space-Track

STARLINK-1414, 45690 is a payload satellite owned by SpaceX/Seattle (US) in LEO that was launched on Thu, 04 Jun 2020 UTC via an FALCON 9 launch vehicle from the Air Force Eastern Test Range (AFETR). Payloads include a variety of satellites, spacecraft, and rockets equipped with specific instruments for various scientific and technological missions. These include communications satellites like Starlink; space stations such as the ISS; scientific satellites like the Hubble; Earth observation satellites from companies like Planet Labs, Umbra, and HawkEye 360; GPS; miniature CubeSats for education and research; and military/defense satellites.

Loading next visibility...
STARLINK-1414 details
Identifier
45690, 2020-035AK
Orbit
LEO
Last TLE update19 hours ago
Origin
Flag of USSpaceX/Seattle (US)
ManufacturerSpaceX/Seattle
MissionPartially operational Commercial Communications
Bus & MotorSTARLINK, Unknown motor
Mass260 kg wet, ~248 kg dry
Launch date (UTC)
2020-06-04 (5 years ago)
Launch vehicle
FALCON 9
Launch site
Air Force Eastern Test Range (AFETR)
Object type
Payload
Rocket body
Debris
Shape & HBRBox + 1 Pan, 8.86 m
Radar Cross Section13.562 m², Large (>1 m²)

Expand to show TLE details & history

TLE from 19 hours ago
0 STARLINK-1414
1 45690U 20035AK  24360.63450706  .00033378  00000-0  79465-3 0  9998
2 45690  53.0539 221.5618 0001629 117.8399 242.2770 15.41331146252318
Epoch: 2024-12-25T15:13Z
Definitive object data (Epoch: 2024-12-25T15:13:41.409Z)
Latitude-0.00008°
Longitude-101.48623°
Altitude443.589 km
Speed7.647 km/s
True Right ascension14h 46m 14s
True Declination0° 00' 00"
Sunlit
Object was in daylight at TLE epoch
Visualization TLE readout
Latitude19.01823°
Longitude59.75574°
Altitude441.502 km
Speed7.65 km/s
Apparent Right ascension23h 59m 22s
Apparent Declination-10° 24' 06"
Sunlit
Object is in full shadow
Visualization observer readout
Local Sidereal Time09:55:46
Azimuth308.587° NW
Elevation-49.742°
Doppler factor1
Orbital elements
Apogee altitude443.566 km
Perigee altitude441.343 km
Semi-major axis6,820.592 km
Eccentricity0.0001629
Inclination53.0539°
RAAN221.5618°
Arg. of periapsis117.8399°
True anomaly242.26048°
Mean anomaly242.277°
Eccentric anomaly242.26874°
Mean motion3.8531 °/min
BSTAR0.00079465
Orbital period93.43 mins
Loading maneuver chart data...

STARLINK-1414 Visibility forecast

Observer location: undefined°, undefined

Span
Click to sort rows by Start time (UTC) header in descending order
Start Az.
Max El. time (UTC)
Max El. Az.
Max El.
End time (UTC)
End Az.
5 mins2024-12-26 17:53:33.774Z248.022° W2024-12-26 17:55:33.774Z333.753° NNW41.193°2024-12-26 17:58:33.774Z43.446° NE
5 mins2024-12-27 00:25:33.774Z304.931° NW2024-12-27 00:27:33.774Z208.916° SW44.334°2024-12-27 00:30:33.774Z135.803° SSE
|